Tracking 33198 objects as of 13-Feb-2026
HD Live streaming from Space Station
objects crossing your sky now

STARLINK-30344

Track STARLINK-30344 now!
10-day predictions
STARLINK-30344 is classified as:


NORAD ID: 57737
Int'l Code: 2023-131F
Perigee: 564.8 km
Apogee: 567.6 km
Inclination: 43.0 °
Period: 95.8 minutes
Semi major axis: 6937 km
RCS: Unknown
Launch date: September 1, 2023
Source: United States (US)
Launch site: AIR FORCE EASTERN TEST RANGE (AFETR)
Your satellite tracking list
Your tracking list is empty




NASA's NSSDC Master Catalog

Two Line Element Set (TLE):
1 57737U 23131F   26044.15068044  .00001186  00000-0  10283-3 0  9996
2 57737  43.0067 305.0677 0001991 252.2965 107.7660 15.02543695136232
Source of the keplerian elements: AFSPC